# Land Stadt Wetter Temperatur Luftdruck Luftfeuchtigkeit Sichtweite Windgeschwindigkeit Windrichtung Ortszeit
1 ca Montreal Clear 0 1003 68 14484 21 20 02.08.2018 14:22
2 au Perth Clear 26 1012 44 10000 22 230 02.08.2018 14:21
3 it Mailand Clear 18 1028 36 10000 8 130 02.08.2018 14:21
4 us Nome Clear -23 1016 76 16093 3 304 02.08.2018 14:23
5 us Fairbanks Clear -13 1014 66 16093 9 80 02.08.2018 14:23
6 kr Seoul Clear 12 1017 24 10000 19 303 02.08.2018 14:21
7 bg Sofia Clear 10 1029 27 10000 15 120 02.08.2018 14:21
8 bg Warna Clear 14 1028 31 10000 28 70 02.08.2018 14:21
9 de Trier Clear 18 1026 42 10000 11 160 02.08.2018 14:21
10 de München Clear 16 1026 41 10000 11 260 02.08.2018 14:21
11 qa Doha Clear 37 1010 11 10000 21 180 02.08.2018 14:23
12 de Freiburg Clear 18 1026 42 10000 2 0 02.08.2018 14:22
13 de Dresden Clear 18 1028 17 10000 21 140 02.08.2018 14:22
14 de Torfhaus Clear 18 1027 51 10000 11 120 02.08.2018 14:22
15 is Reykjavik Clear -2 1016 68 10000 8 130 02.08.2018 14:22
16 it Palermo Clear 16 1025 63 10000 8 260 02.08.2018 14:22
17 at Wien Clear 17 1029 21 10000 30 130 02.08.2018 14:22
18 de Magdeburg Clear 16 1028 52 0 5 134 02.08.2018 14:22
19 ar Esquel Clear 1 1020 100 10000 4 44 02.08.2018 14:22
20 ar Buenos Aires Clear 8 1026 71 10000 4 200 02.08.2018 14:22
21 de Stuttgart Clear 17 1026 39 10000 4 0 02.08.2018 14:22
22 mn Uliastai Clear 6 1016 30 0 5 357 02.08.2018 14:23
23 de Frankfurt Clear 19 1026 37 10000 5 60 02.08.2018 14:22
24 de Berlin Clear 17 1029 42 10000 13 120 02.08.2018 14:21
25 at Innsbruck Clear 16 1026 41 10000 9 270 02.08.2018 14:23
26 us Denver Clear 7 1017 38 16093 11 150 02.08.2018 14:21
27 ua Kiew Clear 18 1025 25 10000 29 270 02.08.2018 14:21
28 de Oberstdorf Clear 16 1027 54 10000 5 290 02.08.2018 14:21
29 mx Veracruz Clear 25 1009 100 0 3 207 02.08.2018 14:21
30 ae Dubai Clear 35 1011 16 10000 5 20 02.08.2018 14:21
31 de Nürnberg Clear 17 1026 27 10000 8 180 02.08.2018 14:21
32 us Tucson Clear 14 1017 47 16093 11 120 02.08.2018 14:21
33 us Las Vegas Clear 11 1014 66 16093 5 200 02.08.2018 14:21
34 fi Helsinki Clear 11 1023 37 10000 24 220 02.08.2018 14:21
35 it Rom Clear 18 1026 51 10000 5 0 02.08.2018 14:23
36 fr Nizza Clear 19 1026 36 10000 5 300 02.08.2018 14:22
37 ch Andermatt Clear 14 1027 41 10000 1 203 02.08.2018 14:23
38 cl Santiago Clear 11 1013 57 10000 1 21 02.08.2018 14:23
39 de Braunschweig Clear 18 1027 51 10000 11 120 02.08.2018 14:21
40 ch Bern Clear 16 1027 48 10000 4 0 02.08.2018 14:23
41 de Köln Clear 19 1026 48 10000 13 160 02.08.2018 14:21
42 tr Istanbul Clouds 11 1024 54 10000 31 40 02.08.2018 14:23
43 tr Ankara Clouds 11 1018 29 10000 17 40 02.08.2018 14:23
44 es Barcelona Clouds 17 1026 51 10000 2 240 02.08.2018 14:22
45 in Jagatsukh Clouds 14 1017 17 0 5 228 02.08.2018 14:22
46 gl Nuuk Clouds -6 1019 67 10000 22 60 02.08.2018 14:22
47 et Addis Abeba Clouds 25 1027 27 10000 21 110 02.08.2018 14:23
48 ru Amderma Clouds -10 1008 94 0 1 50 02.08.2018 14:23
49 bo Potisi Clouds 5 1020 28 0 3 319 02.08.2018 14:22
50 gr Athen Clouds 14 1020 38 10000 33 360 02.08.2018 14:22
51 eg Kairo Clouds 20 1017 42 6000 8 330 02.08.2018 14:22
52 za Kapstadt Clouds 20 1020 42 10000 4 0 02.08.2018 14:22
53 de Helgoland Clouds 14 1026 50 10000 17 150 02.08.2018 14:22
54 no Hammerfest Clouds 2 994 80 10000 9 240 02.08.2018 14:22
55 pt Lissabon Clouds 16 1021 100 6000 8 90 02.08.2018 14:22
56 ke Nairobi Clouds 24 1023 57 10000 15 50 02.08.2018 14:22
57 iq Bagdad Clouds 29 1010 32 10000 15 40 02.08.2018 14:22
58 nz Wellington Clouds 13 1008 87 10000 15 30 02.08.2018 14:23
59 pe Cusco Clouds 9 1021 30 0 1 262 02.08.2018 14:23
60 ru Anadyr Clouds -17 1013 77 10000 7 226 02.08.2018 14:23
61 se Stockholm Clouds 11 1024 50 10000 22 230 02.08.2018 14:23
62 mn Ulaanbaatar Clouds 8 1021 19 10000 7 290 02.08.2018 14:23
63 no Oslo Clouds 8 1020 54 10000 21 180 02.08.2018 14:23
64 mv Male Clouds 29 1010 61 0 8 329 02.08.2018 14:23
65 ma Marrakesch Clouds 24 1018 50 10000 4 0 02.08.2018 14:23
66 us Miami Clouds 24 1014 83 16093 10 165 02.08.2018 14:23
67 es Madrid Clouds 15 1024 71 10000 13 120 02.08.2018 14:23
68 ru Jakutsk Clouds 9 1023 29 10000 11 290 02.08.2018 14:22
69 uy Montevideo Clouds 13 1024 62 10000 13 200 02.08.2018 14:22
70 cn Peking Clouds 16 1020 19 10000 14 150 02.08.2018 14:23
71 ar Ushuaia Clouds 16 1002 55 10000 33 360 02.08.2018 14:22
72 ma Casablanca Clouds 19 1018 82 5000 9 20 02.08.2018 14:23
73 au Darwin Clouds 29 1009 70 10000 9 20 02.08.2018 14:22
74 cn Lhasa Clouds 11 1009 9 0 5 171 02.08.2018 14:22
75 id Jakarta Clouds 32 1007 62 6000 12 335 02.08.2018 14:22
76 af Kabul Clouds 17 1021 48 10000 9 30 02.08.2018 14:21
77 de Hamburg Clouds 16 1026 51 10000 21 150 02.08.2018 14:21
78 mg Antananarivo Clouds 26 1023 57 10000 5 0 02.08.2018 14:21
79 fi Rovaniemi Clouds 4 1005 64 10000 28 210 02.08.2018 14:21
80 gb Glasgow Clouds 12 1024 76 10000 21 210 02.08.2018 14:21
81 de Flensburg Clouds 14 1027 62 10000 18 120 02.08.2018 14:21
82 de Hiddensee Clouds 15 1033 56 0 3 135 02.08.2018 14:21
83 de Emden Clouds 17 1025 55 10000 4 0 02.08.2018 14:21
84 pg Port Moresby Clouds 28 1009 83 10000 28 150 02.08.2018 14:21
85 cn Shanghai Clouds 20 1018 22 10000 22 140 02.08.2018 14:21
86 au Alice Springs Clouds 22 1018 33 10000 17 120 02.08.2018 14:21
87 ph Manila Clouds 31 1009 62 10000 13 110 02.08.2018 14:21
88 es Las Palmas de Gran Canaria Clouds 22 1020 68 10000 33 20 02.08.2018 14:21
89 ie Dublin Clouds 12 1025 50 10000 8 190 02.08.2018 14:21
90 mx Mexiko Stadt Clouds 16 1027 42 16093 6 188 02.08.2018 14:21
91 de Kassel Clouds 18 1026 45 10000 13 120 02.08.2018 14:21
92 de Hannover Clouds 17 1026 52 10000 11 150 02.08.2018 14:21
93 th Bangkok Clouds 35 1008 41 10000 21 200 02.08.2018 14:21
94 br Manaus Clouds 26 1011 94 10000 4 140 02.08.2018 14:21
95 es Tarifa Clouds 16 1023 77 10000 42 80 02.08.2018 14:21
96 fr Bordeaux Clouds 16 1024 72 10000 5 0 02.08.2018 14:21
97 ad Andorra la Vella Clouds 13 1024 78 0 6 208 02.08.2018 14:22
98 de Bremen Clouds 17 1026 55 10000 11 150 02.08.2018 14:22
99 au Sydney Clouds 17 1023 93 10000 8 250 02.08.2018 14:22
100 jp Nagasaki Clouds 15 1017 58 10000 26 340 02.08.2018 14:21
101 ck Avarua Clouds 28 1013 83 10000 17 50 02.08.2018 14:22
102 sb Honiara Clouds 26 1009 88 10000 4 140 02.08.2018 14:22
103 fr Paris Clouds 18 1024 42 10000 5 160 02.08.2018 14:22
104 es Sevilla Clouds 18 1021 77 10000 4 0 02.08.2018 14:22
105 es Palma de Mallorca Clouds 18 1027 39 10000 8 80 02.08.2018 14:22
106 jp Tokio Clouds 17 1010 63 10000 18 160 02.08.2018 14:22
107 ru Moskau Clouds 12 1015 73 10000 22 330 02.08.2018 14:22
108 gb London Clouds 15 1025 55 10000 9 100 02.08.2018 14:22
109 bs Nassau Clouds 23 1015 88 10000 8 140 02.08.2018 14:22
110 us Honolulu Clouds 22 1016 73 16093 3 287 02.08.2018 14:22
111 tr Alanya Clouds 15 1015 51 10000 18 310 02.08.2018 14:22
112 ec San Cristobal Clouds 26 1010 83 0 8 64 02.08.2018 14:22
113 bo La Paz Clouds 0 1039 28 10000 5 100 02.08.2018 14:22
114 sa Riad Dust 36 1013 13 1000 24 190 02.08.2018 14:21
115 vn Hanoi Haze 23 1014 69 5000 5 300 02.08.2018 14:21
116 in Nagpur Haze 38 1009 14 5000 5 250 02.08.2018 14:21
117 us Chicago Mist 10 1007 93 9656 11 80 02.08.2018 14:23
118 do Santo Domingo Rain 24 1016 100 0 9 15 02.08.2018 14:21
119 us Los Angeles Rain 9 1016 76 16093 9 164 02.08.2018 14:22
120 us New York Rain 11 1000 87 12874 9 250 02.08.2018 14:22
121 fj Suva Rain 25 1006 90 0 21 254 02.08.2018 14:21
122 br Rio de Janeiro Rain 21 1014 94 6000 15 200 02.08.2018 14:22
123 us Death Valley Rain 16 1013 58 0 1 10 02.08.2018 14:22
124 gb Manchester Rain 15 1026 54 250 8 220 02.08.2018 14:21
125 cd Kisangani Rain 33 1011 47 0 6 150 02.08.2018 14:23
126 in Mumbai Smoke 31 1012 62 5000 21 260 02.08.2018 14:22
127 ru Werchojansk Snow 0 1021 88 0 17 30 02.08.2018 14:22
128 ru Surgut Snow -2 985 86 2200 36 190 02.08.2018 14:23